TimeEDT,TemperatureF,Dew PointF,Humidity,Sea Level PressureIn,VisibilityMPH,Wind Direction,Wind SpeedMPH,Gust SpeedMPH,PrecipitationIn,Events,Conditions,WindDirDegrees,DateUTC
12:51 AM,73.0,71.1,93,29.94,6.0,SSW,3.5,-,N/A,,Scattered Clouds,200,2013-07-22 04:51:00
1:51 AM,72.0,70.0,93,29.92,7.0,Calm,Calm,-,N/A,,Scattered Clouds,0,2013-07-22 05:51:00
2:51 AM,72.0,70.0,93,29.90,9.0,South,3.5,-,N/A,,Mostly Cloudy,190,2013-07-22 06:51:00
3:51 AM,72.0,70.0,93,29.88,10.0,South,4.6,-,N/A,,Mostly Cloudy,190,2013-07-22 07:51:00
4:23 AM,71.6,69.8,94,29.90,10.0,SSW,5.8,-,N/A,,Scattered Clouds,200,2013-07-22 08:23:00
4:51 AM,72.0,70.0,93,29.88,10.0,South,3.5,-,N/A,,Scattered Clouds,170,2013-07-22 08:51:00
5:51 AM,71.1,69.1,93,29.87,10.0,South,3.5,-,N/A,,Clear,180,2013-07-22 09:51:00
6:51 AM,71.1,69.1,93,29.88,10.0,Variable,3.5,-,N/A,,Partly Cloudy,0,2013-07-22 10:51:00
7:51 AM,72.0,70.0,93,29.89,10.0,South,3.5,-,N/A,,Overcast,180,2013-07-22 11:51:00
8:51 AM,73.9,70.0,87,29.90,10.0,South,5.8,-,N/A,,Overcast,190,2013-07-22 12:51:00
9:51 AM,75.0,70.0,84,29.89,10.0,South,8.1,-,N/A,,Mostly Cloudy,190,2013-07-22 13:51:00
10:51 AM,79.0,71.1,77,29.88,10.0,SSW,5.8,-,N/A,,Mostly Cloudy,210,2013-07-22 14:51:00
11:04 AM,78.8,71.6,78,29.90,10.0,SSW,5.8,-,N/A,,Mostly Cloudy,200,2013-07-22 15:04:00
11:51 AM,81.0,70.0,69,29.88,10.0,SW,6.9,-,N/A,,Mostly Cloudy,220,2013-07-22 15:51:00
12:51 PM,82.9,71.1,67,29.85,10.0,SSW,6.9,-,N/A,,Mostly Cloudy,210,2013-07-22 16:51:00
1:51 PM,81.0,72.0,74,29.83,10.0,South,4.6,-,N/A,,Mostly Cloudy,190,2013-07-22 17:51:00
2:42 PM,78.8,71.6,78,29.84,0.8,NNW,4.6,-,0.00,Rain,Rain,340,2013-07-22 18:42:00
2:51 PM,73.9,70.0,87,29.84,1.0,WNW,10.4,16.1,0.14,Rain,Heavy Rain,300,2013-07-22 18:51:00
2:59 PM,71.6,69.8,94,29.84,2.0,NNW,10.4,16.1,0.04,Rain-Thunderstorm,Thunderstorms and Rain,330,2013-07-22 18:59:00
3:08 PM,71.6,69.8,94,29.85,6.0,Variable,5.8,-,0.06,Rain-Thunderstorm,Light Thunderstorms and Rain,0,2013-07-22 19:08:00
3:19 PM,71.6,69.8,94,29.86,2.5,WNW,6.9,-,0.07,Rain-Thunderstorm,Heavy Thunderstorms and Rain,300,2013-07-22 19:19:00
3:30 PM,71.6,69.8,94,29.86,2.0,West,10.4,19.6,0.11,Rain-Thunderstorm,Thunderstorms and Rain,270,2013-07-22 19:30:00
3:34 PM,71.6,69.8,94,29.86,0.8,West,6.9,20.7,0.13,Rain-Thunderstorm,Heavy Thunderstorms and Rain,280,2013-07-22 19:34:00
3:39 PM,71.6,69.8,94,29.85,0.8,West,11.5,20.7,0.24,Rain-Thunderstorm,Heavy Thunderstorms and Rain,270,2013-07-22 19:39:00
3:51 PM,71.1,70.0,96,29.83,1.5,Calm,Calm,-,0.34,Rain-Thunderstorm,Light Thunderstorms and Rain,0,2013-07-22 19:51:00
3:54 PM,71.6,69.8,94,29.85,2.0,Calm,Calm,-,0.00,Rain,Light Rain,0,2013-07-22 19:54:00
4:32 PM,71.6,69.8,94,29.85,0.5,Calm,Calm,-,0.14,Fog-Rain,Heavy Rain,0,2013-07-22 20:32:00
4:42 PM,71.6,69.8,94,29.84,2.0,Calm,Calm,-,0.24,Rain,Light Rain,0,2013-07-22 20:42:00
4:49 PM,73.4,69.8,88,29.84,9.0,Calm,Calm,-,0.24,Rain,Light Rain,0,2013-07-22 20:49:00
4:51 PM,73.0,70.0,90,29.82,2.5,Calm,Calm,-,0.24,Rain,Light Rain,0,2013-07-22 20:51:00
5:51 PM,72.0,70.0,93,29.79,2.0,Calm,Calm,-,0.04,Rain,Rain,0,2013-07-22 21:51:00
6:51 PM,72.0,70.0,93,29.79,2.0,Calm,Calm,-,0.09,,Overcast,0,2013-07-22 22:51:00
6:58 PM,71.6,69.8,94,29.81,5.0,Calm,Calm,-,N/A,,Overcast,0,2013-07-22 22:58:00
7:18 PM,73.4,69.8,88,29.81,5.0,Calm,Calm,-,N/A,,Overcast,0,2013-07-22 23:18:00
7:51 PM,73.0,70.0,90,29.78,5.0,Calm,Calm,-,N/A,,Overcast,0,2013-07-22 23:51:00
8:21 PM,73.4,71.6,94,29.81,10.0,Calm,Calm,-,N/A,,Overcast,0,2013-07-23 00:21:00
8:28 PM,71.6,69.8,94,29.81,10.0,South,3.5,-,N/A,,Mostly Cloudy,190,2013-07-23 00:28:00
8:51 PM,72.0,70.0,93,29.78,10.0,Calm,Calm,-,N/A,,Mostly Cloudy,0,2013-07-23 00:51:00
9:51 PM,71.1,69.1,93,29.81,2.5,Calm,Calm,-,0.00,,Mostly Cloudy,0,2013-07-23 01:51:00
9:53 PM,71.6,69.8,94,29.83,1.8,Calm,Calm,-,N/A,,Mostly Cloudy,0,2013-07-23 01:53:00
10:01 PM,71.6,69.8,94,29.83,3.0,South,3.5,-,N/A,,Scattered Clouds,180,2013-07-23 02:01:00
10:51 PM,72.0,70.0,93,29.81,10.0,SSW,4.6,-,N/A,,Mostly Cloudy,210,2013-07-23 02:51:00
11:51 PM,72.0,70.0,93,29.81,10.0,Calm,Calm,-,N/A,,Mostly Cloudy,0,2013-07-23 03:51:00